Location: Ellerstadt
(49.4644°N, 8.2615°E)
Time: 05:03:17
(UTC+00:00)

IRIDIUM 100 - Pass Details

Date: 29 September 2021
Orbit: 776 x 779 km, 86.4° (Epoch: 18 October)

Event Time Altitude Azimuth Distance (km) Brightness Sun altitude
Exits shadow 01:55:55 16° 336° (NNW) 1,947 ? -32.2°
Drops below altitude 10° 01:57:12 10° 345° (NNW) 2,341 ? -32.0°
Sets 01:59:52 0° 357° (N) 3,273 ? -31.7°
